Wind_Speed
15 13 12 14 14 16 22 24 25 18 14 17 19 18 16 13 13 12 12 13 15 17 18 19 21 21 21 21 21 20 19 20 18 17 16 15 16 16
4 8 10 12 11 13 15 19 20 18 16 15 17 20 16 15 13 15 17 16 15 15 18 19 20 21 21 20 20 19 19 19 20 19 17 17 17 17
4 7 11 14 12 13 14 12 11 14 16 19 18 22 22 17 19 18 19 20 20 19 19 20 21 21 21 21 20 19 19 20 20 19 18 17 17 18
6 8 10 11 12 15 17 15 14 15 15 19 21 16 20 18 23 17 23 22 23 24 24 24 24 22 22 22 22 22 23 22 21 20 19 19 18 18
8 9 10 10 13 14 15 18 19 19 21 22 22 22 22 23 25 24 24 25 26 26 29 29 27 27 26 25 24 24 23 23 23 23 23 23 22 22
8 6 8 10 12 14 14 17 19 21 24 25 26 28 24 24 26 29 30 30 30 30 29 29 32 31 30 30 29 27 26 26 26 27 27 28 28 28
14 13 12 12 12 14 15 17 18 21 22 23 25 26 28 29 28 29 31 38 36 30 31 30 30 30 30 32 33 32 31 32 31 31 31 31 32 33
14 16 17 17 17 17 16 16 16 19 21 22 23 26 28 28 29 34 26 24 35 33 34 33 36 35 34 34 32 35 38 37 36 36 36 36 36 36
17 22 22 21 21 20 19 20 18 18 19 21 21 25 25 25 27 27 24 27 30 32 29 31 33 34 37 39 38 38 38 38 38 39 38 39 39 38
17 20 22 27 25 24 24 23 22 22 21 21 22 24 26 27 24 22 20 30 28 31 29 23 27 34 35 35 40 44 42 43 43 42 40 40 40 40
19 22 20 19 27 26 27 26 26 25 26 25 25 23 27 28 28 25 19 26 30 33 33 27 31 29 34 40 37 40 42 41 43 45 44 43 43 43
19 22 22 19 20 28 28 27 28 27 30 29 29 27 28 28 28 26 28 28 25 33 30 31 32 35 32 34 37 46 40 35 29 34 32 37 39 43
21 23 22 22 20 19 22 29 33 29 32 34 32 31 29 29 27 28 30 32 33 36 34 35 33 30 30 30 31 31 36 33 35 35 36 37 38 39
23 24 23 24 24 26 25 26 28 34 35 36 36 35 33 30 29 32 32 32 32 34 35 36 39 39 37 31 32 38 45 41 38 43 38 41 40 38
25 26 26 29 28 28 30 30 29 31 35 40 42 40 37 35 34 33 34 36 35 35 36 35 37 38 36 37 41 38 33 38 38 38 44 42 43 42
29 28 28 30 32 31 30 29 30 33 35 38 41 45 42 39 37 37 36 33 34 38 38 37 37 37 38 41 41 37 34 35 36 33 40 40 37 37
33 33 34 33 32 33 30 33 32 34 37 36 41 44 46 42 40 40 40 39 38 38 40 41 40 40 39 34 33 40 45 45 43 41 39 37 38 37
37 38 38 38 37 34 31 31 32 31 29 28 31 37 39 40 41 41 41 43 43 44 44 45 43 42 42 42 42 43 41 39 39 38 39 39 38 36
39 41 42 43 41 37 33 29 29 30 27 27 26 33 37 43 47 46 47 45 48 52 50 49 46 42 38 40 41 43 43 44 43 41 41 39 39 39
44 43 43 45 43 39 33 31 32 31 28 28 28 28 30 33 38 34 42 49 52 54 54 47 43 39 36 33 32 36 37 40 43 45 45 46 45 43
46 46 46 44 42 39 35 35 34 32 31 30 31 30 31 31 30 26 27 31 48 49 53 39 35 39 42 40 39 38 40 39 40 41 43 45 47 47
41 42 41 39 37 35 36 35 35 33 34 35 35 34 34 34 34 34 34 34 30 31 26 26 30 33 35 35 40 36 38 42 40 34 38 39 41 38
35 37 37 32 33 33 33 35 35 35 35 34 35 35 36 36 36 36 38 41 39 37 34 35 41 35 38 43 36 35 37 39 41 40 41 37 35 40
Wind_Direction
236 259 268 272 281 280 262 264 273 264 267 248 251 251 249 245 234 225 214 202 204 207 210 216 226 231 234 233 234 233 233 235 238 239 245 253 253 254
234 265 268 268 271 275 279 282 263 249 269 258 257 254 245 240 239 232 226 219 215 220 221 222 226 231 234 236 238 239 239 238 239 240 246 252 256 255
302 278 266 264 268 272 275 277 264 268 272 263 273 259 240 244 244 239 236 226 222 219 224 228 230 233 236 238 238 239 240 240 239 241 248 255 255 253
287 292 282 279 276 267 266 272 269 265 266 271 270 270 255 253 255 247 242 235 230 228 226 228 230 231 234 236 238 237 237 238 239 241 248 250 254 257
301 301 305 302 289 278 269 266 267 266 260 261 268 265 258 253 251 249 241 243 237 234 234 232 231 234 236 238 241 244 246 244 240 241 247 250 251 255
279 281 284 283 280 280 277 270 267 267 265 263 264 268 266 263 261 259 246 244 237 238 239 238 237 235 238 240 241 242 244 247 247 249 251 254 256 255
291 277 261 257 260 268 272 274 275 273 271 262 264 264 266 260 258 263 261 240 238 239 244 244 246 244 243 246 249 248 244 243 246 248 251 253 257 262
292 285 282 275 272 266 264 269 275 276 278 277 268 265 267 273 269 270 267 247 237 247 244 245 245 245 245 245 245 246 248 248 248 249 250 252 255 260
302 287 274 270 270 270 269 265 266 270 273 275 277 269 271 262 277 273 272 242 234 236 246 256 253 241 245 249 250 251 251 249 251 252 253 255 256 258
318 310 281 265 263 265 268 270 268 269 272 272 272 275 269 258 260 264 272 242 239 236 244 248 258 246 244 246 248 250 252 253 251 251 252 254 256 258
327 326 333 291 259 264 269 271 269 268 266 270 270 271 274 279 271 263 251 251 240 248 246 249 265 260 254 250 252 253 250 257 252 250 252 255 258 260
323 327 318 316 277 267 266 267 271 273 269 266 266 268 271 276 278 270 258 257 251 264 257 261 264 261 254 251 260 260 246 245 243 246 251 255 255 258
314 318 323 308 301 289 286 274 269 269 269 267 264 262 263 266 272 272 267 260 259 262 258 261 255 269 265 250 271 262 240 241 245 242 245 251 254 258
304 309 312 311 300 297 294 287 280 265 261 263 261 262 261 263 263 265 265 265 263 262 258 259 255 256 256 262 271 247 252 244 247 248 252 247 259 262
299 303 304 305 303 300 295 293 287 276 263 260 261 258 257 261 261 263 265 263 261 261 261 261 259 264 256 260 261 263 261 253 257 261 255 253 253 252
299 299 300 299 298 297 297 295 290 287 279 270 261 257 256 259 262 264 266 266 266 264 260 259 259 261 262 266 263 255 255 261 264 269 254 262 256 253
297 296 294 295 294 293 295 291 286 287 287 280 268 258 252 255 258 261 265 267 267 268 267 264 263 263 262 261 259 260 264 264 266 266 265 267 264 264
291 292 295 298 297 293 287 282 281 289 289 279 277 264 251 258 261 257 260 265 268 270 271 271 271 268 267 266 265 264 263 262 266 267 267 266 265 265
282 285 287 291 294 293 284 276 281 287 290 287 281 265 270 270 272 262 258 262 266 267 266 266 266 268 269 268 266 266 265 266 268 269 270 268 265 266
282 281 282 284 285 285 274 271 270 275 274 271 276 273 280 287 280 271 259 260 262 264 261 256 259 259 264 262 271 269 264 263 264 263 262 263 265 266
281 282 283 282 280 276 267 264 264 267 268 267 269 276 278 277 282 287 289 285 264 257 250 246 259 267 268 263 262 264 269 269 267 268 268 266 265 266
280 279 280 282 280 273 267 264 265 267 268 271 274 276 277 276 278 278 281 281 287 273 256 268 272 274 260 256 252 259 263 264 265 261 268 269 266 262
282 284 284 283 281 276 272 271 271 273 276 276 275 275 275 276 276 275 274 271 275 271 268 263 264 263 266 271 267 259 268 272 268 265 264 271 271 263
Height
5902 5911 5910 5912 5912 5913 5915 5916 5916 5916 5915 5915 5916 5917 5918 5919 5921 5923 5925 5926 5928 5929 5932 5935 5938 5940 5941 5944 5945 5948 5950 5951 5953 5955 5957 5958 5959 5959
5901 5904 5906 5908 5907 5908 5910 5910 5911 5913 5913 5913 5912 5912 5914 5915 5917 5920 5921 5923 5925 5928 5930 5932 5934 5936 5938 5940 5942 5944 5946 5948 5949 5951 5953 5954 5956 5957
5898 5900 5903 5903 5903 5904 5905 5906 5907 5909 5910 5910 5909 5909 5911 5911 5913 5915 5916 5919 5921 5923 5925 5927 5929 5931 5933 5935 5937 5940 5942 5943 5946 5948 5950 5951 5952 5953
5899 5898 5899 5897 5898 5900 5902 5902 5903 5905 5906 5906 5906 5905 5907 5908 5909 5911 5911 5913 5915 5917 5919 5921 5923 5926 5928 5930 5932 5934 5935 5938 5941 5943 5945 5946 5947 5949
5895 5894 5893 5894 5895 5896 5897 5898 5898 5900 5901 5901 5900 5901 5903 5903 5903 5905 5906 5907 5909 5910 5912 5914 5917 5920 5922 5924 5927 5929 5931 5934 5936 5937 5939 5940 5941 5942
5889 5889 5889 5891 5892 5892 5892 5892 5893 5893 5894 5895 5895 5894 5896 5897 5899 5899 5900 5900 5901 5902 5905 5907 5909 5911 5914 5917 5920 5922 5925 5928 5929 5931 5932 5933 5934 5935
5888 5887 5886 5885 5886 5886 5887 5888 5888 5887 5887 5887 5888 5889 5889 5889 5890 5889 5890 5890 5893 5895 5898 5901 5903 5905 5908 5910 5913 5915 5916 5918 5920 5922 5924 5925 5926 5927
5884 5883 5883 5883 5883 5882 5881 5880 5881 5881 5882 5881 5881 5880 5881 5882 5883 5883 5881 5880 5886 5888 5890 5892 5894 5897 5898 5900 5903 5905 5907 5908 5910 5912 5913 5915 5916 5918
5879 5877 5876 5876 5876 5877 5876 5875 5874 5873 5874 5875 5875 5874 5874 5875 5874 5873 5873 5876 5878 5880 5882 5884 5885 5888 5889 5891 5893 5895 5897 5898 5900 5901 5903 5905 5906 5907
5873 5871 5869 5868 5869 5870 5870 5870 5870 5869 5868 5867 5867 5867 5867 5869 5866 5866 5866 5869 5870 5872 5874 5876 5876 5878 5878 5881 5882 5884 5886 5888 5889 5890 5892 5894 5896 5898
5869 5866 5863 5861 5862 5863 5863 5864 5864 5863 5862 5861 5860 5859 5859 5860 5862 5862 5861 5860 5862 5864 5865 5866 5867 5867 5867 5870 5872 5873 5874 5876 5877 5879 5881 5883 5885 5886
5865 5861 5859 5857 5856 5856 5855 5855 5856 5858 5855 5855 5854 5853 5852 5853 5854 5856 5855 5855 5855 5854 5856 5857 5859 5857 5858 5859 5859 5859 5860 5863 5864 5868 5870 5872 5874 5875
5859 5856 5854 5852 5850 5849 5848 5846 5846 5848 5847 5847 5846 5846 5846 5846 5847 5848 5848 5849 5849 5847 5848 5848 5848 5848 5847 5848 5850 5848 5850 5851 5854 5857 5859 5861 5861 5862
5852 5849 5848 5846 5844 5841 5839 5838 5837 5836 5837 5836 5836 5837 5837 5838 5839 5840 5840 5841 5841 5840 5840 5839 5839 5839 5839 5839 5840 5840 5840 5840 5844 5846 5847 5849 5850 5851
5846 5843 5840 5838 5836 5833 5830 5829 5828 5827 5826 5825 5825 5826 5828 5829 5829 5830 5831 5831 5831 5831 5831 5830 5829 5829 5830 5830 5832 5832 5831 5831 5833 5833 5834 5836 5837 5838
5836 5833 5831 5829 5827 5824 5822 5820 5818 5816 5815 5815 5813 5814 5817 5818 5819 5820 5820 5821 5821 5821 5821 5821 5820 5820 5820 5820 5821 5821 5821 5823 5823 5823 5823 5824 5825 5825
5827 5825 5823 5820 5817 5815 5813 5810 5808 5807 5804 5801 5800 5801 5803 5806 5807 5809 5810 5810 5810 5809 5809 5810 5811 5810 5810 5811 5810 5809 5809 5810 5811 5812 5813 5815 5815 5816
5817 5816 5813 5811 5808 5805 5802 5800 5799 5797 5794 5792 5791 5789 5790 5793 5795 5797 5797 5798 5798 5797 5797 5798 5798 5798 5799 5799 5799 5798 5799 5800 5800 5801 5801 5803 5804 5805
5807 5805 5802 5801 5798 5795 5792 5790 5788 5786 5785 5783 5782 5782 5782 5782 5782 5783 5784 5784 5785 5784 5783 5784 5785 5785 5786 5785 5785 5785 5788 5789 5788 5789 5790 5791 5792 5794
5798 5795 5793 5791 5787 5785 5783 5781 5778 5778 5776 5776 5774 5774 5772 5772 5771 5768 5767 5768 5769 5768 5767 5768 5770 5772 5774 5775 5774 5772 5773 5775 5775 5775 5776 5777 5778 5779
5784 5782 5780 5777 5775 5774 5773 5770 5768 5767 5766 5765 5764 5763 5762 5762 5761 5759 5756 5752 5751 5751 5751 5753 5756 5759 5759 5760 5762 5760 5759 5761 5761 5761 5762 5763 5763 5764
5771 5768 5766 5765 5765 5764 5763 5761 5759 5757 5756 5755 5754 5752 5751 5751 5750 5748 5747 5746 5745 5743 5742 5744 5746 5747 5746 5745 5746 5747 5748 5747 5748 5748 5749 5749 5750 5750
5761 5760 5758 5755 5754 5754 5753 5753 5751 5748 5746 5744 5742 5741 5740 5739 5739 5738 5737 5738 5736 5736 5735 5736 5736 5734 5734 5733 5731 5733 5732 5734 5734 5735 5737 5737 5736 5737